[[{"header":{"parameterUnit":"m.s-1","parameterCategory":2,"la1":30.2991,"la2":30.254,"lo1":-89.0895,"lo2":-89.0444,"dy":0.0017,"dx":0.0017,"nx":28,"ny":28,"refTime":"2023-08-02T09:00:00:Z","depth":"0","parameterNumber":2,"parameterNumberName":"U-component_of_CURRENTS"},"data":[0,0,0,0,0,0,0,0,0,0,0,0,0,0,0,0,0,0,0,0,0,0,0,0,0,0,0,0,0,0,0,0,0,0,0,0,0,0,0,0,0,0,0,0,0,0,0,0,0,0,0,0,0,0,0,0,0,0,-0.3939,-0.394,0,-0.3993,-0.3993,-0.3994,-0.3982,-0.3981,-0.398,-0.398,-0.389,-0.3888,-0.3887,0,0,0,0,0,0,0,0,0,0,0,0,0,-0.369,-0.3695,-0.3939,-0.394,-0.3941,-0.3993,-0.3993,-0.3994,-0.3982,-0.3981,-0.398,-0.3979,-0.389,-0.3888,-0.3886,0,0,0,0,0,0,0,0,0,0,0,0,0,-0.3774,-0.3697,-0.3939,-0.3943,-0.3945,-0.3993,-0.3993,-0.3994,-0.3982,-0.3981,-0.398,-0.3979,-0.3891,-0.3889,-0.3886,-0.3892,0,0,-0.3878,-0.3877,0,0,0,0,0,0,0,0,-0.3769,-0.3783,-0.3942,-0.3943,-0.3945,-0.3982,-0.3873,-0.3954,-0.3982,-0.3965,-0.398,-0.3978,-0.391,-0.3906,-0.3916,-0.3888,-0.3884,-0.3878,-0.3876,-0.3875,-0.3875,0,0,0,0,0,0,0,-0.3764,-0.378,-0.3957,-0.3943,-0.3945,-0.3897,-0.3908,-0.3888,-0.3938,-0.3966,-0.3966,-0.3977,-0.3909,-0.3919,-0.3914,-0.3883,-0.3878,-0.3876,-0.3874,-0.3873,-0.3918,-0.392,0,0,0,0,0,0,-0.3773,-0.3776,-0.3955,-0.3959,-0.3856,-0.3903,-0.3916,-0.3969,-0.3941,-0.3938,-0.3978,-0.3977,-0.3924,-0.3917,-0.391,-0.3975,-0.3875,-0.3873,-0.3872,-0.3915,-0.3918,-0.3921,0,0,0,0,0,0,-0.3768,-0.379,-0.3953,-0.3867,-0.3885,-0.391,-0.3968,-0.397,-0.3987,-0.3953,-0.3946,-0.3993,-0.3923,-0.3914,-0.3926,-0.3968,-0.3872,-0.3869,-0.3912,-0.3916,-0.392,-0.4064,0,0,0,0,0,0,-0.3762,-0.3789,-0.3818,-0.387,-0.3891,-0.4022,-0.397,-0.3972,-0.3997,-0.3995,-0.3963,-0.3954,-0.3921,-0.393,-0.3923,-0.3963,-0.3867,-0.3908,-0.3914,-0.3918,-0.4056,-0.4073,-0.4087,0,0,0,0,0,-0.3753,-0.3827,-0.3821,-0.3841,-0.3936,-0.4025,-0.4033,-0.4039,-0.3998,-0.4041,-0.4011,-0.3955,-0.3957,-0.3931,-0.3922,-0.3961,-0.3906,-0.3912,-0.3918,-0.4049,-0.4069,-0.4086,0,0,0,0,0,0,-0.3739,-0.3834,-0.3828,-0.3926,-0.398,-0.4025,-0.4055,-0.4049,-0.4059,-0.404,-0.3988,-0.398,-0.4009,-0.3968,-0.394,-0.3992,-0.3923,-0.3927,-0.4025,-0.4044,-0.4059,-0.405,-0.3865,0,0,0,0,0,-0.3748,-0.3825,-0.3894,-0.3968,-0.3996,-0.4017,-0.4043,-0.4056,-0.4075,-0.4078,-0.4053,-0.4027,-0.4029,-0.4022,-0.4016,-0.4038,-0.3994,-0.4059,-0.4074,-0.4088,-0.4077,-0.4064,-0.4077,-0.3941,-0.3941,-0.3941,0,0,-0.3756,-0.382,-0.3858,-0.3968,-0.3996,-0.4065,-0.4032,-0.4096,-0.4141,-0.4063,-0.4101,-0.4081,-0.4049,-0.4088,-0.4096,-0.4056,-0.4112,-0.4096,-0.4107,-0.4088,-0.4072,-0.4085,-0.4096,-0.3945,-0.3945,-0.3944,0,0,-0.3827,-0.3874,-0.3957,-0.4012,-0.4082,-0.4104,-0.4127,-0.418,-0.4193,-0.4238,-0.4194,-0.4212,-0.4197,-0.4204,-0.4196,-0.4293,-0.4199,-0.4277,-0.4339,-0.433,-0.434,-0.4348,-0.4339,-0.4345,-0.4279,-0.4279,-0.428,0,-0.3825,-0.3943,-0.3991,-0.408,-0.412,-0.4126,-0.4205,-0.4236,-0.4282,-0.4295,-0.427,-0.4278,-0.4262,-0.4303,-0.4338,-0.4329,-0.4287,-0.4272,-0.4348,-0.4355,-0.4361,-0.4349,-0.4354,-0.4287,-0.4286,-0.4285,-0.4285,0,-0.3956,-0.4034,-0.4088,-0.4196,-0.4253,-0.4324,-0.4374,-0.4416,-0.4409,-0.4424,-0.4465,-0.4453,-0.4446,-0.4463,-0.4424,-0.4465,-0.4411,-0.4374,-0.4297,-0.4384,-0.4366,-0.4368,-0.4298,-0.4295,-0.4293,-0.4291,0,0,-0.3984,-0.4147,-0.4158,-0.4203,-0.4312,-0.4367,-0.4456,-0.4531,-0.4548,-0.4592,-0.461,-0.4656,-0.4612,-0.4601,-0.4564,-0.4561,-0.4593,-0.4476,-0.4472,-0.446,-0.4551,-0.4183,-0.4149,-0.4546,-0.4547,-0.4547,-0.4532,0,-0.4054,-0.4201,-0.4287,-0.4399,-0.4457,-0.4512,-0.4583,-0.4644,-0.466,-0.4676,-0.4685,-0.4684,-0.4674,-0.4646,-0.4656,-0.4582,-0.4599,-0.46,-0.4473,-0.447,-0.4125,-0.4139,-0.3907,-0.384,-0.4534,-0.4534,-0.4534,0,-0.413,-0.4218,-0.433,-0.4457,-0.4492,-0.4559,-0.463,-0.4705,-0.4747,-0.4753,-0.477,-0.4736,-0.4751,-0.4707,-0.4684,-0.4666,-0.4626,-0.4588,-0.4586,-0.4178,-0.4101,-0.386,-0.3817,-0.3797,-0.4537,-0.4536,-0.4536,0,-0.4042,-0.4239,-0.4307,-0.4353,-0.4503,-0.4557,-0.4636,-0.4706,-0.4729,-0.4771,-0.4743,-0.4781,-0.4728,-0.4724,-0.4636,-0.4653,-0.4562,-0.4587,-0.4249,-0.4226,-0.3966,-0.3912,-0.3867,-0.4591,-0.4591,-0.4592,-0.4592,0,-0.4033,-0.4091,-0.4266,-0.4285,-0.4351,-0.4505,-0.4551,-0.4621,-0.4688,-0.4642,-0.4742,-0.4664,-0.4713,-0.4649,-0.4631,-0.4389,-0.4569,-0.4233,-0.4174,-0.4008,-0.3961,-0.3873,-0.395,-0.4591,-0.4591,-0.4591,-0.4591,0,-0.3871,-0.3998,-0.4073,-0.4245,-0.4284,-0.4318,-0.4457,-0.4472,-0.4581,-0.4509,-0.4509,-0.4554,-0.4429,-0.4452,-0.4398,-0.4295,-0.4063,-0.4073,-0.3852,-0.3759,-0.3325,-0.3418,-0.3266,-0.3181,-0.3683,-0.3673,-0.3665,0,-0.381,-0.3815,-0.3957,-0.397,-0.4032,-0.4125,-0.4147,-0.4337,-0.4345,-0.4375,-0.4295,-0.4225,-0.4062,-0.388,-0.3699,-0.3568,-0.3705,-0.3296,-0.3268,-0.3217,-0.3287,-0.3388,-0.3343,-0.3051,-0.3038,-0.3028,-0.302,0,-0.3642,-0.3666,-0.3705,-0.3709,-0.3742,-0.3795,-0.3868,-0.3856,-0.4003,-0.3962,-0.3826,-0.3722,-0.3493,-0.3178,-0.3002,-0.293,-0.3151,-0.3063,-0.3111,-0.282,-0.284,-0.2755,-0.3184,-0.2929,-0.2938,-0.2945,-0.295,-0.2953,-0.3487,-0.3434,-0.3441,-0.3415,-0.3442,-0.3397,-0.3318,-0.3416,-0.3354,-0.3224,-0.3289,-0.3029,-0.2845,-0.2488,-0.2405,-0.2138,-0.2372,-0.2117,-0.2257,-0.2383,-0.2195,-0.2354,-0.1936,-0.1939,-0.1942,-0.1944,-0.1946,0,-0.3275,-0.319,-0.3151,-0.3071,-0.2937,-0.3073,-0.3049,-0.2935,-0.2744,-0.2722,-0.2561,-0.2198,-0.1937,-0.1856,-0.1556,-0.1433,-0.1532,-0.1481,-0.1703,-0.1713,-0.1921,-0.1777,-0.1179,-0.1179,-0.1179,-0.1179,-0.118,-0.118,-0.3154,-0.2984,-0.292,-0.2578,-0.25,-0.2267,-0.2187,-0.2089,-0.2051,-0.176,-0.1552,-0.1434,-0.1416,-0.1453,-0.129,-0.1223,-0.1344,-0.1217,-0.1385,-0.1669,-0.1746,-0.182,-0.1701,-0.1097,-0.1097,-0.1089,-0.1089,-0.109]},{"header":{"parameterUnit":"m.s-1","parameterCategory":2,"la1":30.2991,"la2":30.254,"lo1":-89.0895,"lo2":-89.0444,"dy":0.0017,"dx":0.0017,"nx":28,"ny":28,"refTime":"2023-08-02T09:00:00:Z","depth":"0","parameterNumber":3,"parameterNumberName":"V-component_of_CURRENTS"},"data":[0,0,0,0,0,0,0,0,0,0,0,0,0,0,0,0,0,0,0,0,0,0,0,0,0,0,0,0,0,0,0,0,0,0,0,0,0,0,0,0,0,0,0,0,0,0,0,0,0,0,0,0,0,0,0,0,0,0,-0.0375,-0.0373,0,-0.0226,-0.0224,-0.0223,-0.0096,-0.0095,-0.0094,-0.0092,0.0126,0.013,0.0135,0,0,0,0,0,0,0,0,0,0,0,0,0,-0.0522,-0.052,-0.0375,-0.0373,-0.0371,-0.0226,-0.0224,-0.0222,-0.0097,-0.0095,-0.0093,-0.0092,0.0125,0.013,0.0135,0,0,0,0,0,0,0,0,0,0,0,0,0,-0.0425,-0.052,-0.0375,-0.0291,-0.0281,-0.0227,-0.0224,-0.0222,-0.0097,-0.0095,-0.0093,-0.0091,0.0123,0.0129,0.0136,0.0134,0,0,0.0156,0.0159,0,0,0,0,0,0,0,0,-0.0431,-0.042,-0.0305,-0.0296,-0.0286,-0.0177,-0.0196,-0.0099,-0.0098,-0.0168,-0.0092,-0.009,0.003,0.0044,0.0066,0.0145,0.0154,0.0157,0.0161,0.0164,0.0166,0,0,0,0,0,0,0,-0.0438,-0.0425,-0.0316,-0.0303,-0.0291,-0.025,-0.0235,-0.0177,-0.0082,-0.0161,-0.0152,-0.0135,0.0036,0.0059,0.0072,0.0157,0.0157,0.0163,0.0167,0.017,0.0308,0.0308,0,0,0,0,0,0,-0.0459,-0.0432,-0.0321,-0.0312,-0.0354,-0.025,-0.0232,-0.0215,-0.0084,-0.0062,-0.0137,-0.013,0.0046,0.0064,0.008,0.012,0.0164,0.017,0.0174,0.0309,0.0308,0.0308,0,0,0,0,0,0,-0.0462,-0.045,-0.0327,-0.0368,-0.0349,-0.025,-0.0231,-0.0213,-0.0186,-0.0066,-0.0042,-0.0129,0.0049,0.0071,0.0129,0.0128,0.0173,0.0179,0.0309,0.0308,0.0308,0.0178,0,0,0,0,0,0,-0.0467,-0.0453,-0.0456,-0.037,-0.0348,-0.0307,-0.0233,-0.0211,-0.0179,-0.0168,-0.0052,-0.0029,0.0052,0.0118,0.0135,0.0139,0.0185,0.0309,0.0309,0.0308,0.0183,0.0173,0.0165,0,0,0,0,0,-0.0473,-0.0496,-0.0457,-0.0444,-0.0353,-0.0309,-0.0295,-0.0216,-0.0181,-0.0183,-0.01,-0.0032,0.0127,0.0122,0.0143,0.0148,0.031,0.0309,0.0308,0.0187,0.0175,0.0165,0,0,0,0,0,0,-0.0558,-0.0482,-0.0438,-0.0434,-0.0378,-0.0287,-0.0284,-0.0233,-0.0172,-0.0161,-0.0046,-0.0019,0.0041,0.0102,0.0093,0.0187,0.0233,0.0236,0.0134,0.0124,0.0115,0.0088,0.019,0,0,0,0,0,-0.058,-0.0574,-0.0491,-0.0486,-0.0466,-0.0379,-0.0354,-0.0304,-0.0235,-0.0205,-0.012,-0.003,0.0051,0.009,0.0169,0.0201,0.022,0.0222,0.0213,0.0205,0.0198,0.0186,0.0174,0.0305,0.0305,0.0305,0,0,-0.0609,-0.0568,-0.0562,-0.0504,-0.0454,-0.0433,-0.0359,-0.0336,-0.0307,-0.0193,-0.0139,-0.0059,0.0054,0.0109,0.014,0.0159,0.0179,0.0204,0.0196,0.0194,0.0184,0.0171,0.0159,0.0305,0.0305,0.0305,0,0,-0.0671,-0.0631,-0.0646,-0.0614,-0.0555,-0.0492,-0.0493,-0.0412,-0.0366,-0.0314,-0.0214,-0.0149,-0.0032,0.0046,0.0103,0.0084,0.0135,0.0118,0.0047,0.0035,0.0023,0.0013,0.0014,0.0005,0.0108,0.0108,0.0107,0,-0.0707,-0.0702,-0.0645,-0.0652,-0.0627,-0.0526,-0.0531,-0.0474,-0.0382,-0.0367,-0.0312,-0.0164,-0.0059,0.0002,0.0021,0.0064,0.0063,0.0075,0.0018,0.0009,0.0001,0.0005,-0.0003,0.0101,0.0102,0.0103,0.0103,0,-0.0772,-0.0768,-0.078,-0.0738,-0.0712,-0.0704,-0.0617,-0.0591,-0.0521,-0.0464,-0.0402,-0.0274,-0.0193,-0.0137,-0.0047,-0.0044,-0.0024,0.0006,0.0033,-0.0021,-0.0012,-0.0018,0.0092,0.0094,0.0096,0.0098,0,0,-0.0847,-0.0825,-0.0829,-0.0827,-0.0758,-0.0745,-0.0714,-0.0662,-0.0672,-0.0568,-0.0581,-0.0403,-0.0356,-0.0288,-0.0184,-0.0165,-0.0194,-0.0106,-0.0104,-0.0125,-0.0229,-0.0002,0.0014,-0.0193,-0.0194,-0.0196,-0.0203,0,-0.0903,-0.0937,-0.0904,-0.0921,-0.0923,-0.085,-0.0837,-0.0791,-0.0733,-0.0729,-0.0608,-0.0559,-0.0406,-0.0377,-0.0337,-0.0231,-0.0217,-0.0195,-0.0153,-0.0151,0.004,0.0013,0.0087,0.0107,-0.0208,-0.0209,-0.021,0,-0.0971,-0.098,-0.1013,-0.1014,-0.1014,-0.1009,-0.0995,-0.0971,-0.0939,-0.0911,-0.086,-0.0773,-0.0688,-0.0573,-0.0447,-0.045,-0.0347,-0.0266,-0.0265,-0.0009,0.0066,0.0115,0.0108,0.0303,-0.0219,-0.0218,-0.0218,0,-0.1043,-0.1058,-0.1082,-0.108,-0.1065,-0.108,-0.106,-0.1036,-0.1041,-0.103,-0.1053,-0.0958,-0.0904,-0.0789,-0.0524,-0.0532,-0.0396,-0.0401,-0.0107,-0.0092,0.0009,0.004,0.0182,-0.0346,-0.0346,-0.0346,-0.0346,0,-0.1105,-0.1135,-0.1123,-0.1145,-0.1196,-0.1159,-0.1213,-0.1198,-0.1208,-0.1228,-0.1146,-0.1132,-0.0957,-0.0821,-0.0626,-0.0336,-0.0472,-0.0116,-0.0074,-0.0027,-0.0001,0.0209,0.027,-0.0346,-0.0346,-0.0346,-0.0346,0,-0.118,-0.1167,-0.1212,-0.1222,-0.123,-0.1266,-0.129,-0.1336,-0.1332,-0.1364,-0.1363,-0.1286,-0.1092,-0.0856,-0.0648,-0.0432,-0.0056,-0.0064,0.0015,0.0071,0.052,0.057,0.0745,0.0875,0.0175,0.0181,0.0185,0,-0.1221,-0.1244,-0.1279,-0.1307,-0.1311,-0.1353,-0.1389,-0.1392,-0.1429,-0.1415,-0.1441,-0.129,-0.1142,-0.0735,-0.033,0.0031,0.0168,0.0321,0.035,0.0579,0.066,0.067,0.0764,0.0397,0.0403,0.0408,0.0412,0,-0.1295,-0.1302,-0.1339,-0.1391,-0.1431,-0.148,-0.1519,-0.1565,-0.1551,-0.1567,-0.1507,-0.1395,-0.0959,-0.0492,0.0039,0.0255,0.0485,0.0441,0.0613,0.0822,0.0894,0.1029,0.0373,0.0457,0.0453,0.0449,0.0447,0.0445,-0.1351,-0.1392,-0.1424,-0.1468,-0.1519,-0.1566,-0.1587,-0.1634,-0.1664,-0.1575,-0.1489,-0.1149,-0.0561,0.0187,0.044,0.1014,0.0882,0.1132,0.1157,0.1134,0.1335,0.0838,0.1037,0.1036,0.1035,0.1034,0.1033,0,-0.1392,-0.1424,-0.1487,-0.1526,-0.1563,-0.1579,-0.1641,-0.1634,-0.164,-0.1407,-0.1264,-0.0399,0.0149,0.073,0.1437,0.1694,0.169,0.1791,0.175,0.18,0.1294,0.139,0.1755,0.1754,0.1754,0.1754,0.1754,0.1753,-0.1413,-0.1465,-0.1485,-0.1531,-0.1552,-0.1571,-0.1585,-0.158,-0.1414,-0.0928,-0.0317,0.0178,0.0922,0.164,0.2176,0.2217,0.2374,0.2368,0.2465,0.2057,0.1994,0.1933,0.204,0.2536,0.2536,0.2944,0.2948,0.2951]}],[{"header":{"parameterUnit":"m.s-1","parameterCategory":2,"la1":30.2991,"la2":30.254,"lo1":-89.0895,"lo2":-89.0444,"dy":0.0017,"dx":0.0017,"nx":28,"ny":28,"refTime":"2023-08-02T09:00:00:Z","depth":"2","parameterNumber":2,"parameterNumberName":"U-component_of_CURRENTS"},"data":[0,0,0,0,0,0,0,0,0,0,0,0,0,0,0,0,0,0,0,0,0,0,0,0,0,0,0,0,0,0,0,0,0,0,0,0,0,0,0,0,0,0,0,0,0,0,0,0,0,0,0,0,0,0,0,0,0,0,-0.26,-0.2602,0,-0.2642,-0.2641,-0.264,-0.2555,-0.2554,-0.2553,-0.2552,-0.2812,-0.282,-0.2828,0,0,0,0,0,0,0,0,0,0,0,0,0,-0.2456,-0.2458,-0.26,-0.2602,-0.2604,-0.2642,-0.2641,-0.264,-0.2556,-0.2554,-0.2553,-0.2551,-0.281,-0.2819,-0.2829,0,0,0,0,0,0,0,0,0,0,0,0,0,-0.2494,-0.2458,-0.26,-0.2579,-0.2579,-0.2642,-0.2641,-0.2639,-0.2556,-0.2554,-0.2552,-0.255,-0.2806,-0.2818,-0.283,-0.2941,0,0,-0.2867,-0.2872,0,0,0,0,0,0,0,0,-0.2492,-0.2497,-0.258,-0.2581,-0.2581,-0.2606,-0.2686,-0.2757,-0.2556,-0.2547,-0.2552,-0.255,-0.2776,-0.2791,-0.2775,-0.2954,-0.2965,-0.2868,-0.2876,-0.2881,-0.2884,0,0,0,0,0,0,0,-0.2489,-0.2495,-0.2599,-0.2583,-0.2583,-0.2572,-0.2573,-0.2697,-0.2662,-0.2547,-0.2546,-0.2578,-0.2775,-0.2763,-0.2782,-0.2969,-0.2868,-0.2879,-0.2886,-0.2891,-0.3145,-0.3145,0,0,0,0,0,0,-0.252,-0.2493,-0.2598,-0.2602,-0.255,-0.2577,-0.2578,-0.2586,-0.2656,-0.2668,-0.2579,-0.2574,-0.2743,-0.2768,-0.2791,-0.2847,-0.2881,-0.2892,-0.2899,-0.3146,-0.3145,-0.3145,0,0,0,0,0,0,-0.2516,-0.2528,-0.2597,-0.2563,-0.2573,-0.2583,-0.2592,-0.2588,-0.2596,-0.2681,-0.2693,-0.2596,-0.2743,-0.2774,-0.2885,-0.286,-0.2897,-0.2908,-0.3146,-0.3146,-0.3145,-0.3013,0,0,0,0,0,0,-0.2511,-0.2526,-0.254,-0.2565,-0.2577,-0.2629,-0.2596,-0.2591,-0.2626,-0.2619,-0.2701,-0.272,-0.2744,-0.2867,-0.2897,-0.2878,-0.2918,-0.3147,-0.3146,-0.3145,-0.3018,-0.3008,-0.3,0,0,0,0,0,-0.2506,-0.253,-0.254,-0.2554,-0.2596,-0.2632,-0.2634,-0.2624,-0.263,-0.2625,-0.2674,-0.2718,-0.288,-0.2878,-0.2914,-0.2897,-0.3148,-0.3146,-0.3145,-0.3023,-0.301,-0.3,0,0,0,0,0,0,-0.2472,-0.2527,-0.2536,-0.2575,-0.2606,-0.2623,-0.2642,-0.2652,-0.2683,-0.2698,-0.2752,-0.2775,-0.2839,-0.2914,-0.2909,-0.2963,-0.3009,-0.3015,-0.2903,-0.2893,-0.2883,-0.2881,-0.2928,0,0,0,0,0,-0.2482,-0.2504,-0.2558,-0.2586,-0.2614,-0.2639,-0.266,-0.2665,-0.2706,-0.2714,-0.276,-0.282,-0.2862,-0.2916,-0.2966,-0.3056,-0.312,-0.3056,-0.3046,-0.3037,-0.3058,-0.3138,-0.3138,-0.3141,-0.3141,-0.3141,0,0,-0.2474,-0.2515,-0.2525,-0.2581,-0.2606,-0.2623,-0.264,-0.2689,-0.2696,-0.2756,-0.278,-0.2808,-0.2878,-0.2907,-0.2946,-0.2975,-0.3061,-0.3036,-0.3028,-0.3054,-0.3137,-0.3137,-0.3137,-0.314,-0.314,-0.3141,0,0,-0.2462,-0.2516,-0.2522,-0.2561,-0.2632,-0.2643,-0.267,-0.2706,-0.2715,-0.2789,-0.2771,-0.279,-0.2919,-0.2885,-0.2911,-0.2912,-0.3,-0.2929,-0.29,-0.2975,-0.2976,-0.2977,-0.3013,-0.3019,-0.2933,-0.2933,-0.2933,0,-0.2455,-0.2481,-0.253,-0.2557,-0.2573,-0.2654,-0.2648,-0.2694,-0.2748,-0.2767,-0.2799,-0.2864,-0.2897,-0.2893,-0.2841,-0.2888,-0.295,-0.2928,-0.2962,-0.2965,-0.2969,-0.3007,-0.3015,-0.2927,-0.2927,-0.2928,-0.2929,0,-0.2449,-0.2478,-0.2501,-0.2536,-0.2535,-0.2586,-0.2636,-0.2681,-0.2734,-0.2758,-0.2803,-0.2831,-0.2863,-0.2842,-0.2851,-0.2851,-0.2889,-0.2928,-0.2986,-0.2961,-0.3002,-0.3013,-0.2917,-0.292,-0.2922,-0.2923,0,0,-0.2419,-0.2481,-0.2489,-0.2511,-0.2545,-0.2566,-0.2586,-0.2625,-0.2683,-0.2741,-0.2769,-0.2771,-0.279,-0.2815,-0.2799,-0.284,-0.286,-0.2891,-0.2898,-0.2917,-0.302,-0.272,-0.2704,-0.2924,-0.2926,-0.2928,-0.3021,0,-0.2408,-0.2444,-0.2439,-0.2458,-0.2484,-0.253,-0.2542,-0.2586,-0.2651,-0.2716,-0.2761,-0.2798,-0.2785,-0.2792,-0.2823,-0.285,-0.2894,-0.2831,-0.3053,-0.3058,-0.2787,-0.2707,-0.2511,-0.255,-0.3032,-0.3034,-0.3035,0,-0.2371,-0.2432,-0.2423,-0.2464,-0.2475,-0.248,-0.2524,-0.2556,-0.2649,-0.2709,-0.2748,-0.2791,-0.2793,-0.2831,-0.2911,-0.2884,-0.2948,-0.299,-0.2996,-0.2779,-0.2777,-0.2665,-0.2553,-0.3055,-0.3054,-0.3052,-0.3051,0,-0.2343,-0.239,-0.2387,-0.2414,-0.248,-0.2485,-0.2509,-0.2555,-0.259,-0.2698,-0.2734,-0.2792,-0.2819,-0.2923,-0.2904,-0.2968,-0.2998,-0.3115,-0.2916,-0.2897,-0.2801,-0.2766,-0.3226,-0.3226,-0.3226,-0.3225,-0.3225,0,-0.2337,-0.2361,-0.241,-0.2477,-0.2482,-0.2494,-0.2516,-0.2578,-0.2637,-0.2658,-0.2728,-0.2741,-0.2857,-0.2849,-0.2914,-0.2851,-0.3009,-0.2885,-0.2889,-0.2737,-0.2697,-0.3213,-0.3211,-0.3229,-0.3228,-0.3227,-0.3227,0,-0.2293,-0.2342,-0.2374,-0.2465,-0.2478,-0.2478,-0.2501,-0.2544,-0.2615,-0.2637,-0.2661,-0.272,-0.2706,-0.2714,-0.2824,-0.2805,-0.2817,-0.2768,-0.2518,-0.2485,-0.2709,-0.2699,-0.2674,-0.2663,-0.2655,-0.2648,-0.2642,0,-0.2261,-0.229,-0.2349,-0.2352,-0.2399,-0.2421,-0.2434,-0.2517,-0.2527,-0.2598,-0.259,-0.2585,-0.2523,-0.2465,-0.2394,-0.2374,-0.2563,-0.2215,-0.2284,-0.2639,-0.2649,-0.2652,-0.2654,-0.214,-0.213,-0.2122,-0.2116,0,-0.2218,-0.2228,-0.2272,-0.2282,-0.2294,-0.2306,-0.2336,-0.2348,-0.2429,-0.2443,-0.2439,-0.2406,-0.2273,-0.2085,-0.1929,-0.1939,-0.2189,-0.2049,-0.2521,-0.2235,-0.2121,-0.2134,-0.2158,-0.2046,-0.2053,-0.2058,-0.2062,-0.2064,-0.2137,-0.2114,-0.2144,-0.2138,-0.2156,-0.2164,-0.2134,-0.2177,-0.2173,-0.2145,-0.2204,-0.2072,-0.2,-0.1652,-0.1538,-0.1463,-0.1689,-0.1734,-0.1768,-0.1808,-0.1654,-0.1523,-0.1308,-0.1311,-0.1313,-0.1315,-0.1317,0,-0.1977,-0.1999,-0.1992,-0.1984,-0.1961,-0.2018,-0.2025,-0.197,-0.1911,-0.189,-0.1829,-0.1574,-0.1368,-0.1313,-0.1068,-0.1019,-0.1131,-0.1025,-0.1207,-0.1273,-0.1332,-0.1164,-0.0685,-0.0683,-0.0682,-0.068,0,0,-0.1904,-0.1851,-0.1853,-0.1768,-0.1779,-0.1683,-0.166,-0.1607,-0.154,-0.143,-0.1329,-0.1324,-0.1274,-0.0988,-0.0894,-0.0749,-0.103,-0.0717,-0.1218,-0.1497,-0.1556,-0.1715,-0.152,0,0,0,0,0]},{"header":{"parameterUnit":"m.s-1","parameterCategory":2,"la1":30.2991,"la2":30.254,"lo1":-89.0895,"lo2":-89.0444,"dy":0.0017,"dx":0.0017,"nx":28,"ny":28,"refTime":"2023-08-02T09:00:00:Z","depth":"2","parameterNumber":3,"parameterNumberName":"V-component_of_CURRENTS"},"data":[0,0,0,0,0,0,0,0,0,0,0,0,0,0,0,0,0,0,0,0,0,0,0,0,0,0,0,0,0,0,0,0,0,0,0,0,0,0,0,0,0,0,0,0,0,0,0,0,0,0,0,0,0,0,0,0,0,0,-0.0349,-0.0347,0,-0.0201,-0.02,-0.0198,-0.0109,-0.0109,-0.0108,-0.0108,0.0306,0.0316,0.0327,0,0,0,0,0,0,0,0,0,0,0,0,0,-0.047,-0.0469,-0.0349,-0.0347,-0.0345,-0.0201,-0.0199,-0.0197,-0.0109,-0.0109,-0.0108,-0.0108,0.0303,0.0315,0.0328,0,0,0,0,0,0,0,0,0,0,0,0,0,-0.038,-0.0468,-0.0349,-0.0284,-0.0276,-0.0202,-0.0199,-0.0197,-0.011,-0.0109,-0.0108,-0.0108,0.0298,0.0314,0.033,0.0414,0,0,0.0378,0.0385,0,0,0,0,0,0,0,0,-0.0385,-0.0376,-0.0295,-0.0288,-0.028,-0.0173,-0.009,0.0021,-0.011,-0.0173,-0.0108,-0.0107,0.0171,0.0197,0.0219,0.0434,0.0451,0.038,0.0389,0.0396,0.0401,0,0,0,0,0,0,0,-0.0392,-0.0381,-0.0291,-0.0293,-0.0284,-0.0232,-0.022,-0.007,-0.0002,-0.0168,-0.0161,-0.0144,0.0177,0.0203,0.023,0.0457,0.0379,0.0393,0.0403,0.0409,0.0774,0.0774,0,0,0,0,0,0,-0.0414,-0.0387,-0.0296,-0.0286,-0.0331,-0.0231,-0.0217,-0.0208,-0.0009,0.0019,-0.0145,-0.014,0.0175,0.0211,0.0245,0.0341,0.0396,0.0411,0.042,0.0773,0.0774,0.0774,0,0,0,0,0,0,-0.0417,-0.0408,-0.0301,-0.0333,-0.0315,-0.023,-0.0221,-0.0205,-0.0169,0.0005,0.0039,-0.0123,0.0177,0.0223,0.0361,0.0359,0.0418,0.0433,0.0773,0.0773,0.0774,0.0546,0,0,0,0,0,0,-0.0422,-0.041,-0.0412,-0.0335,-0.0314,-0.0265,-0.0221,-0.0203,-0.016,-0.0153,0.0036,0.0073,0.0181,0.0336,0.0377,0.0382,0.0445,0.0773,0.0773,0.0774,0.0553,0.0538,0.0525,0,0,0,0,0,-0.0427,-0.0433,-0.0413,-0.0402,-0.032,-0.0265,-0.025,-0.0187,-0.016,-0.0151,-0.0036,0.0068,0.0367,0.0349,0.0397,0.0407,0.0773,0.0773,0.0774,0.0559,0.0541,0.0526,0,0,0,0,0,0,-0.0481,-0.0422,-0.0399,-0.0386,-0.0334,-0.025,-0.0235,-0.0189,-0.0096,-0.0083,0.0077,0.0123,0.0238,0.0362,0.0338,0.0513,0.0587,0.0596,0.0407,0.0392,0.0378,0.0341,0.0458,0,0,0,0,0,-0.0497,-0.0493,-0.0421,-0.0413,-0.0391,-0.0314,-0.0283,-0.0242,-0.0151,-0.0112,0.0017,0.0158,0.0275,0.0361,0.0486,0.0599,0.0708,0.0637,0.0623,0.061,0.0613,0.0749,0.0746,0.0775,0.0775,0.0775,0,0,-0.0516,-0.0484,-0.048,-0.0425,-0.0381,-0.0357,-0.0294,-0.0257,-0.023,-0.0072,0.0011,0.0119,0.0292,0.0388,0.0454,0.0496,0.0656,0.0611,0.0598,0.0609,0.0749,0.0746,0.0743,0.0775,0.0775,0.0775,0,0,-0.0554,-0.0524,-0.0532,-0.0497,-0.0442,-0.0393,-0.0385,-0.0301,-0.0257,-0.0161,-0.0066,0.0024,0.0246,0.0323,0.0404,0.0403,0.0568,0.0463,0.0379,0.0508,0.0506,0.0506,0.0612,0.0623,0.0465,0.0465,0.0465,0,-0.0576,-0.0574,-0.0524,-0.052,-0.0503,-0.0414,-0.0417,-0.0356,-0.0239,-0.0201,-0.0151,0.0086,0.0207,0.0307,0.0284,0.0368,0.0474,0.0415,0.0485,0.0488,0.0492,0.0602,0.0617,0.0454,0.0455,0.0456,0.0457,0,-0.0614,-0.0611,-0.0612,-0.0584,-0.0564,-0.0548,-0.0473,-0.0429,-0.0357,-0.029,-0.0178,-0.0037,0.0104,0.0143,0.0219,0.0295,0.0369,0.0435,0.0511,0.0474,0.0593,0.0613,0.0438,0.0442,0.0446,0.0448,0,0,-0.0662,-0.0642,-0.0643,-0.0644,-0.0599,-0.0581,-0.0551,-0.0489,-0.0454,-0.0339,-0.0281,-0.0141,-0.0073,0.002,0.0116,0.0212,0.0291,0.0321,0.0334,0.0396,0.0579,0.0463,0.0475,0.0379,0.0382,0.0384,0.064,0,-0.07,-0.0725,-0.0703,-0.0716,-0.0721,-0.0658,-0.0638,-0.0578,-0.0489,-0.0406,-0.028,-0.0177,-0.0111,-0.0054,0.0043,0.0237,0.034,0.0215,0.0635,0.0647,0.0523,0.0492,0.0479,0.0691,0.066,0.0664,0.0666,0,-0.074,-0.0756,-0.0795,-0.0786,-0.0783,-0.0778,-0.0736,-0.0695,-0.0578,-0.0512,-0.0407,-0.0285,-0.0161,-0.0083,0.0216,0.0144,0.034,0.049,0.0505,0.0494,0.0567,0.0736,0.073,0.0702,0.0699,0.0696,0.0694,0,-0.0809,-0.0809,-0.0848,-0.0847,-0.083,-0.0834,-0.0808,-0.0733,-0.0697,-0.0571,-0.0523,-0.0345,-0.0237,0.0012,0.0252,0.0279,0.0587,0.0683,0.0768,0.0764,0.0882,0.088,0.0918,0.0918,0.0918,0.0917,0.0916,0,-0.0861,-0.0881,-0.0879,-0.0903,-0.0933,-0.09,-0.0898,-0.0846,-0.0769,-0.0727,-0.058,-0.0505,-0.02,-0.0005,0.0244,0.0513,0.0591,0.0744,0.0817,0.0796,0.0783,0.0908,0.0903,0.0926,0.0924,0.0922,0.0921,0,-0.0926,-0.0925,-0.0959,-0.0966,-0.0972,-0.0988,-0.0967,-0.0949,-0.0877,-0.0814,-0.078,-0.059,-0.0339,-0.0073,0.0326,0.0485,0.0765,0.0851,0.0762,0.0815,0.0882,0.0863,0.1035,0.1032,0.1031,0.1029,0.1028,0,-0.0959,-0.0992,-0.102,-0.1043,-0.1047,-0.1059,-0.1071,-0.1015,-0.0987,-0.0864,-0.0832,-0.0617,-0.0444,0.0007,0.0323,0.0701,0.0747,0.0874,0.0903,0.0837,0.0893,0.0877,0.0861,0.1004,0.1002,0.1001,0.1,0,-0.102,-0.1029,-0.1057,-0.1116,-0.114,-0.1158,-0.1155,-0.1157,-0.1074,-0.1004,-0.0871,-0.0728,-0.0345,0.0025,0.0398,0.0625,0.0794,0.0859,0.0882,0.0904,0.0809,0.0861,0.0849,0.099,0.0991,0.0992,0.0993,0.0993,-0.1049,-0.1082,-0.1121,-0.1167,-0.1202,-0.1233,-0.1243,-0.12,-0.1151,-0.0997,-0.0885,-0.0617,-0.0319,0.0248,0.049,0.0723,0.0785,0.091,0.0916,0.0923,0.0801,0.0699,0.0841,0.0841,0.0841,0.0841,0.0841,0,-0.1065,-0.1111,-0.1165,-0.122,-0.1263,-0.1269,-0.128,-0.1246,-0.1164,-0.0955,-0.0773,-0.0427,-0.0055,0.0244,0.0615,0.0812,0.0854,0.0833,0.0889,0.0897,0.0905,0.0784,0.082,0.082,0.082,0.082,0,0,-0.1074,-0.1132,-0.1165,-0.1249,-0.129,-0.1325,-0.1328,-0.1245,-0.109,-0.0846,-0.0609,-0.0328,0.0009,0.0261,0.0505,0.0683,0.0738,0.0688,0.0694,0.0742,0.0747,0.0944,0.0763,0,0,0,0,0]}],[{"header":{"parameterUnit":"m.s-1","parameterCategory":2,"la1":30.2991,"la2":30.254,"lo1":-89.0895,"lo2":-89.0444,"dy":0.0017,"dx":0.0017,"nx":28,"ny":28,"refTime":"2023-08-02T09:00:00:Z","depth":"4","parameterNumber":2,"parameterNumberName":"U-component_of_CURRENTS"},"data":[0,0,0,0,0,0,0,0,0,0,0,0,0,0,0,0,0,0,0,0,0,0,0,0,0,0,0,0,0,0,0,0,0,0,0,0,0,0,0,0,0,0,0,0,0,0,0,0,0,0,0,0,0,0,0,0,0,0,-0.1501,-0.1501,0,-0.1543,-0.1543,-0.1544,-0.1572,-0.1572,-0.1572,-0.1572,-0.1611,-0.1612,-0.1613,0,0,0,0,0,0,0,0,0,0,0,0,0,-0.1476,-0.1477,-0.1501,-0.1501,-0.1502,-0.1542,-0.1543,-0.1544,-0.1572,-0.1572,-0.1572,-0.1572,-0.1611,-0.1612,-0.1613,0,0,0,0,0,0,0,0,0,0,0,0,0,-0.1501,-0.1477,-0.1501,-0.1519,-0.1521,-0.1542,-0.1543,-0.1544,-0.1572,-0.1572,-0.1572,-0.1572,-0.161,-0.1612,-0.1613,-0.1622,0,0,-0.1618,-0.1619,0,0,0,0,0,0,0,0,-0.15,-0.1502,-0.1516,-0.1518,-0.152,-0.155,-0.1549,-0.1569,-0.1572,-0.1555,-0.1572,-0.1572,-0.1589,-0.1593,-0.1603,-0.1624,-0.1626,-0.1618,-0.1619,-0.162,-0.162,0,0,0,0,0,0,0,-0.1498,-0.1501,-0.1519,-0.1517,-0.1519,-0.1536,-0.1539,-0.1553,-0.1573,-0.1556,-0.1558,-0.1559,-0.1591,-0.1602,-0.1604,-0.1626,-0.1618,-0.162,-0.1621,-0.1621,-0.1672,-0.1673,0,0,0,0,0,0,-0.1487,-0.1499,-0.1518,-0.152,-0.1508,-0.1536,-0.154,-0.1542,-0.1573,-0.1577,-0.1559,-0.1561,-0.1599,-0.1602,-0.1606,-0.1674,-0.162,-0.1621,-0.1622,-0.1672,-0.1673,-0.1673,0,0,0,0,0,0,-0.1487,-0.1489,-0.1516,-0.1509,-0.1514,-0.1536,-0.1539,-0.1543,-0.1576,-0.1575,-0.1579,-0.159,-0.1599,-0.1604,-0.1632,-0.1673,-0.1622,-0.1623,-0.1671,-0.1672,-0.1673,-0.1774,0,0,0,0,0,0,-0.1486,-0.1488,-0.15,-0.1508,-0.1513,-0.1541,-0.1538,-0.1544,-0.1574,-0.1577,-0.1602,-0.1604,-0.16,-0.163,-0.1634,-0.1674,-0.1625,-0.1671,-0.1672,-0.1673,-0.177,-0.1778,-0.1785,0,0,0,0,0,-0.1485,-0.1488,-0.15,-0.1503,-0.1524,-0.1542,-0.1547,-0.1564,-0.1576,-0.1594,-0.1609,-0.1605,-0.1637,-0.1632,-0.1636,-0.1679,-0.167,-0.1671,-0.1672,-0.1767,-0.1777,-0.1785,0,0,0,0,0,0,-0.1481,-0.1492,-0.1505,-0.1512,-0.1535,-0.1546,-0.1564,-0.158,-0.1608,-0.1616,-0.1618,-0.1622,-0.166,-0.1647,-0.1641,-0.1689,-0.165,-0.1652,-0.1721,-0.173,-0.1737,-0.1755,-0.1626,0,0,0,0,0,-0.1487,-0.1496,-0.1512,-0.1522,-0.1535,-0.1559,-0.1574,-0.1587,-0.1605,-0.1619,-0.1634,-0.1645,-0.1664,-0.168,-0.1684,-0.172,-0.1697,-0.1743,-0.175,-0.1757,-0.1771,-0.1777,-0.1787,-0.1676,-0.1676,-0.1676,0,0,-0.149,-0.1496,-0.1503,-0.1524,-0.1544,-0.1568,-0.1569,-0.1597,-0.1625,-0.1618,-0.1665,-0.1675,-0.1676,-0.1713,-0.1729,-0.1713,-0.1771,-0.1758,-0.1765,-0.1775,-0.1779,-0.179,-0.18,-0.1677,-0.1677,-0.1677,0,0,-0.1485,-0.1509,-0.1513,-0.1537,-0.1567,-0.1586,-0.1601,-0.163,-0.1655,-0.169,-0.1698,-0.1737,-0.1751,-0.1777,-0.1786,-0.1836,-0.1807,-0.1831,-0.1897,-0.1902,-0.1912,-0.1921,-0.1887,-0.1892,-0.184,-0.184,-0.184,0,-0.1491,-0.1501,-0.152,-0.1535,-0.1563,-0.1599,-0.1625,-0.1655,-0.1691,-0.1729,-0.171,-0.1779,-0.1783,-0.1856,-0.1872,-0.1859,-0.1838,-0.1871,-0.1915,-0.1923,-0.193,-0.1894,-0.1898,-0.1845,-0.1844,-0.1844,-0.1843,0,-0.1484,-0.1512,-0.1521,-0.1557,-0.159,-0.1621,-0.1664,-0.1711,-0.1744,-0.1779,-0.1854,-0.1864,-0.1908,-0.1918,-0.1914,-0.1982,-0.1941,-0.1924,-0.1901,-0.1948,-0.1905,-0.1908,-0.1852,-0.185,-0.1849,-0.1847,0,0,-0.144,-0.1506,-0.1512,-0.1555,-0.1611,-0.1644,-0.1703,-0.1779,-0.184,-0.188,-0.1948,-0.2002,-0.2028,-0.2039,-0.205,-0.2067,-0.2094,-0.2026,-0.2024,-0.2007,-0.208,-0.1946,-0.1934,-0.2089,-0.2091,-0.2092,-0.2024,0,-0.1436,-0.1484,-0.1512,-0.1585,-0.1624,-0.1691,-0.1747,-0.1826,-0.1883,-0.1954,-0.2007,-0.2062,-0.2067,-0.2094,-0.2122,-0.2102,-0.2108,-0.2112,-0.2024,-0.2021,-0.1909,-0.1936,-0.2097,-0.2025,-0.2026,-0.2026,-0.2026,0,-0.1409,-0.1456,-0.1522,-0.163,-0.1654,-0.1706,-0.1833,-0.1885,-0.1995,-0.2032,-0.2115,-0.2143,-0.221,-0.2175,-0.2195,-0.2197,-0.2152,-0.2124,-0.212,-0.1965,-0.1892,-0.197,-0.203,-0.203,-0.203,-0.2029,-0.2029,0,-0.1379,-0.1465,-0.1532,-0.1567,-0.1683,-0.1743,-0.1812,-0.1925,-0.1975,-0.2088,-0.2123,-0.2211,-0.223,-0.2226,-0.2189,-0.2191,-0.2164,-0.2148,-0.1984,-0.1972,-0.2071,-0.2063,-0.2143,-0.2143,-0.2143,-0.2143,-0.2144,0,-0.1357,-0.1415,-0.1537,-0.1577,-0.1664,-0.1751,-0.1845,-0.1923,-0.2019,-0.2077,-0.2166,-0.2197,-0.2243,-0.2237,-0.22,-0.2094,-0.2171,-0.1997,-0.1955,-0.2109,-0.2106,-0.2071,-0.2063,-0.2141,-0.2141,-0.2142,-0.2142,0,-0.131,-0.1387,-0.1471,-0.1608,-0.1649,-0.1718,-0.1834,-0.1894,-0.1997,-0.2063,-0.2093,-0.2182,-0.2169,-0.2179,-0.2145,-0.2076,-0.2004,-0.1941,-0.2089,-0.2055,-0.1802,-0.18,-0.175,-0.1745,-0.1741,-0.1737,-0.1734,0,-0.1287,-0.1329,-0.1473,-0.1518,-0.1583,-0.1685,-0.1739,-0.186,-0.191,-0.2036,-0.2049,-0.2086,-0.2121,-0.1967,-0.1991,-0.1898,-0.1873,-0.1823,-0.184,-0.1802,-0.1766,-0.1772,-0.1776,-0.1727,-0.1726,-0.1725,-0.1724,0,-0.1237,-0.1301,-0.1371,-0.1458,-0.1531,-0.1602,-0.1695,-0.1715,-0.1845,-0.1944,-0.195,-0.1934,-0.1906,-0.1872,-0.1804,-0.1747,-0.1859,-0.1777,-0.1786,-0.1801,-0.1774,-0.1743,-0.1753,-0.1709,-0.1711,-0.1712,-0.1713,0,-0.1183,-0.1217,-0.1305,-0.1375,-0.1465,-0.1508,-0.1568,-0.1619,-0.1671,-0.1813,-0.1802,-0.1839,-0.1897,-0.179,-0.1737,-0.1663,-0.1633,-0.1585,-0.1603,-0.162,-0.1607,-0.1555,-0.1387,0,0,0,0,0,-0.1116,-0.1146,-0.1207,-0.1283,-0.1378,-0.1421,-0.1531,-0.1593,-0.171,-0.167,-0.1734,-0.1702,-0.1634,-0.165,-0.1538,-0.1654,-0.1632,-0.1517,-0.1586,-0.1625,-0.1643,-0.1639,0,0,0,0,0,0,-0.1064,-0.1125,-0.1164,-0.1196,-0.1231,-0.1309,-0.1375,-0.1456,-0.1445,-0.1563,-0.1527,-0.16,-0.1545,-0.1663,-0.1503,-0.1501,-0.151,-0.1534,-0.1529,-0.1616,-0.1631,-0.1645,-0.1648,0,0,0,0,0]},{"header":{"parameterUnit":"m.s-1","parameterCategory":2,"la1":30.2991,"la2":30.254,"lo1":-89.0895,"lo2":-89.0444,"dy":0.0017,"dx":0.0017,"nx":28,"ny":28,"refTime":"2023-08-02T09:00:00:Z","depth":"4","parameterNumber":3,"parameterNumberName":"V-component_of_CURRENTS"},"data":[0,0,0,0,0,0,0,0,0,0,0,0,0,0,0,0,0,0,0,0,0,0,0,0,0,0,0,0,0,0,0,0,0,0,0,0,0,0,0,0,0,0,0,0,0,0,0,0,0,0,0,0,0,0,0,0,0,0,-0.0318,-0.0318,0,-0.0267,-0.0266,-0.0266,-0.0226,-0.0226,-0.0225,-0.0225,-0.0163,-0.0161,-0.016,0,0,0,0,0,0,0,0,0,0,0,0,0,-0.0352,-0.0352,-0.0318,-0.0318,-0.0317,-0.0267,-0.0266,-0.0266,-0.0226,-0.0226,-0.0225,-0.0225,-0.0163,-0.0162,-0.016,0,0,0,0,0,0,0,0,0,0,0,0,0,-0.0323,-0.0352,-0.0318,-0.0291,-0.0288,-0.0267,-0.0266,-0.0265,-0.0226,-0.0226,-0.0225,-0.0225,-0.0164,-0.0162,-0.016,-0.0161,0,0,-0.0154,-0.0153,0,0,0,0,0,0,0,0,-0.0325,-0.0322,-0.0296,-0.0293,-0.0289,-0.0252,-0.0255,-0.023,-0.0227,-0.025,-0.0225,-0.0224,-0.0192,-0.0187,-0.018,-0.0158,-0.0155,-0.0154,-0.0153,-0.0152,-0.0151,0,0,0,0,0,0,0,-0.0327,-0.0324,-0.0298,-0.0295,-0.0291,-0.0271,-0.0266,-0.025,-0.0225,-0.0248,-0.0245,-0.0239,-0.019,-0.0182,-0.0178,-0.0154,-0.0154,-0.0152,-0.0151,-0.015,-0.0137,-0.0137,0,0,0,0,0,0,-0.0335,-0.0326,-0.03,-0.0297,-0.0305,-0.0271,-0.0266,-0.0265,-0.0226,-0.0219,-0.0239,-0.0237,-0.0186,-0.018,-0.0176,-0.0163,-0.0152,-0.015,-0.0149,-0.0136,-0.0137,-0.0138,0,0,0,0,0,0,-0.0336,-0.0333,-0.0302,-0.0309,-0.0304,-0.0271,-0.027,-0.0264,-0.0257,-0.0219,-0.0212,-0.0238,-0.0185,-0.0179,-0.0171,-0.0161,-0.0149,-0.0148,-0.0135,-0.0136,-0.0137,-0.0145,0,0,0,0,0,0,-0.0337,-0.0334,-0.0337,-0.031,-0.0304,-0.0304,-0.0271,-0.0264,-0.0254,-0.025,-0.0216,-0.0209,-0.0184,-0.0174,-0.0169,-0.0158,-0.0146,-0.0134,-0.0135,-0.0137,-0.0144,-0.0146,-0.0148,0,0,0,0,0,-0.0339,-0.035,-0.0338,-0.0334,-0.0309,-0.0305,-0.0301,-0.0274,-0.0255,-0.0263,-0.0237,-0.021,-0.0179,-0.0173,-0.0167,-0.0155,-0.0133,-0.0135,-0.0137,-0.0143,-0.0146,-0.0148,0,0,0,0,0,0,-0.0366,-0.0346,-0.0332,-0.0337,-0.0326,-0.0298,-0.0299,-0.028,-0.0266,-0.026,-0.0221,-0.0214,-0.0202,-0.0188,-0.0182,-0.0159,-0.0152,-0.0152,-0.0158,-0.0161,-0.0163,-0.0161,-0.0145,0,0,0,0,0,-0.0374,-0.038,-0.0356,-0.0363,-0.0357,-0.0329,-0.0322,-0.0307,-0.0288,-0.028,-0.0258,-0.0232,-0.0205,-0.0192,-0.0177,-0.0165,-0.0121,-0.0156,-0.0159,-0.0161,-0.0158,-0.0069,-0.0061,-0.0143,-0.0143,-0.0143,0,0,-0.0387,-0.0377,-0.038,-0.037,-0.0355,-0.036,-0.0324,-0.0322,-0.0323,-0.0277,-0.0276,-0.0243,-0.0207,-0.0191,-0.0184,-0.0176,-0.012,-0.0163,-0.0164,-0.016,-0.007,-0.0061,-0.0053,-0.0144,-0.0144,-0.0144,0,0,-0.0421,-0.0407,-0.0422,-0.0419,-0.0405,-0.0388,-0.0391,-0.037,-0.0356,-0.0355,-0.031,-0.0268,-0.0258,-0.0206,-0.0181,-0.019,-0.0138,-0.0197,-0.0197,-0.0111,-0.0103,-0.0095,-0.0044,-0.0031,-0.0193,-0.0193,-0.0193,0,-0.0434,-0.0449,-0.0427,-0.0442,-0.0443,-0.0405,-0.0424,-0.0405,-0.0387,-0.0367,-0.0365,-0.0291,-0.0255,-0.0193,-0.0193,-0.0188,-0.015,-0.0184,-0.011,-0.0101,-0.0092,-0.0042,-0.0028,-0.0194,-0.0194,-0.0194,-0.0194,0,-0.0476,-0.0489,-0.05,-0.0504,-0.0506,-0.0517,-0.049,-0.0481,-0.0458,-0.0428,-0.038,-0.0321,-0.0269,-0.0249,-0.0221,-0.0144,-0.0142,-0.0122,-0.0094,-0.0084,-0.0033,-0.0018,-0.0195,-0.0194,-0.0194,-0.0194,0,0,-0.0501,-0.0525,-0.0529,-0.0542,-0.054,-0.0544,-0.0541,-0.0516,-0.0496,-0.0459,-0.042,-0.0346,-0.0295,-0.0264,-0.0208,-0.0128,-0.0031,-0.0105,-0.0101,-0.0041,0.0135,0.0098,0.0112,0.0006,0.0008,0.0011,0.0141,0,-0.0538,-0.0585,-0.0585,-0.0623,-0.064,-0.0611,-0.0616,-0.0586,-0.0544,-0.0499,-0.0399,-0.0354,-0.0306,-0.0272,-0.018,-0.0069,0.0009,-0.007,0.0103,0.0108,0.0088,0.0129,0.002,0.0153,0.0156,0.0159,0.0161,0,-0.0574,-0.0602,-0.0654,-0.0678,-0.0682,-0.0702,-0.068,-0.0673,-0.059,-0.0557,-0.0467,-0.0399,-0.0271,-0.0241,-0.0027,-0.0083,0.0022,0.0108,0.0116,0.0098,0.01,0.0143,0.0189,0.0186,0.0184,0.0182,0.0181,0,-0.06,-0.0644,-0.069,-0.0701,-0.0725,-0.0737,-0.0737,-0.0689,-0.0672,-0.0579,-0.0549,-0.0401,-0.0321,-0.0163,0.0009,-0.0002,0.0235,0.0247,0.0313,0.031,0.0308,0.0299,0.0403,0.0402,0.0402,0.0402,0.0401,0,-0.0633,-0.0667,-0.0709,-0.0734,-0.0782,-0.0778,-0.0793,-0.0767,-0.0716,-0.0682,-0.0575,-0.0506,-0.0295,-0.0141,0.001,0.0204,0.0244,0.0323,0.0354,0.0295,0.0283,0.0319,0.0307,0.0407,0.0406,0.0405,0.0404,0,-0.0652,-0.0682,-0.0735,-0.078,-0.08,-0.0829,-0.0849,-0.0842,-0.0797,-0.0743,-0.0718,-0.0561,-0.0362,-0.0165,0.01,0.0198,0.0386,0.0441,0.0344,0.0365,0.04,0.0386,0.0534,0.0534,0.0534,0.0534,0.0534,0,-0.0664,-0.0697,-0.0773,-0.0812,-0.084,-0.0879,-0.0904,-0.0887,-0.0867,-0.0767,-0.0734,-0.0556,-0.043,-0.0078,0.0112,0.0384,0.0417,0.049,0.0468,0.0405,0.042,0.0405,0.0392,0.0534,0.0534,0.0534,0.0534,0,-0.0685,-0.0718,-0.0761,-0.0847,-0.0897,-0.0937,-0.0961,-0.0954,-0.0906,-0.0872,-0.071,-0.0536,-0.0316,-0.0064,0.0135,0.0331,0.0431,0.0492,0.0493,0.0473,0.0407,0.0418,0.0405,0.0534,0.0534,0.0534,0.0534,0,-0.0693,-0.0732,-0.0799,-0.0866,-0.0935,-0.0972,-0.0981,-0.0936,-0.0911,-0.0793,-0.0736,-0.0503,-0.0361,-0.0091,0.0099,0.0276,0.032,0.0361,0.037,0.0372,0.0274,0.0163,0.0256,0,0,0,0,0,-0.0694,-0.0742,-0.0811,-0.0887,-0.0953,-0.0994,-0.1008,-0.0998,-0.0951,-0.0835,-0.0779,-0.0568,-0.0268,-0.0135,0.0044,0.0073,0.032,0.028,0.0364,0.0535,0.0535,0.0444,0,0,0,0,0,0,-0.0697,-0.0767,-0.0807,-0.0889,-0.0942,-0.1009,-0.1019,-0.0989,-0.0905,-0.0828,-0.0652,-0.0557,-0.0254,-0.0362,0.004,0.009,0.0158,0.0426,0.0429,0.0536,0.0535,0.0535,0.0441,0,0,0,0,0]}]]